Gwinn, MI

12:46 PM EST on December 18, 2017 (GMT -0500)
Sawyer International

Weather History for KSAW - September, 2012

Change the Weather History Date:

Wednesday, September 5, 2012

  Actual Average (KESC) Record (KESC)
Temperature  
Mean Temperature 62 °F -  
Max Temperature 66 °F 68 °F 82 °F (2007)
Min Temperature 58 °F 53 °F 35 °F (2003)
Degree Days  
Heating Degree Days 3    
Growing Degree Days 12 (Base 50)    
Moisture  
Dew Point 56 °F    
Average Humidity 83    
Maximum Humidity 91    
Minimum Humidity 64    
Precipitation  
Precipitation 0.00 in - - ()
Sea Level Pressure  
Sea Level Pressure 29.81 in    
Wind  
Wind Speed 6 mph (WSW)    
Max Wind Speed 15 mph    
Max Gust Speed 30 mph    
Visibility 10 miles    
Events Rain , Thunderstorm    
Averages and records for this station are not official NWS values.
T = Trace of Precipitation, MM = Missing Value Source: NWS Daily Summary

Daily Weather History Graph

Daily Weather History Graph

Search for Another Location

Airport or City:

Trip Planner

Search our weather history database for the weather conditions in past years. The results will help you decide how hot, cold, wet, or windy it might be!

Date:

Astronomy

Sep. 05, 2012 Rise Set
Actual Time 7:15 AM EDT 8:19 PM EDT
Civil Twilight 6:44 AM EDT 8:50 PM EDT
Nautical Twilight 6:07 AM EDT 9:27 PM EDT
Astronomical Twilight 5:28 AM EDT 10:06 PM EDT
Moon 10:27 PM EDT (9/5) 12:40 PM EDT (9/5)
Length of Visible Light 14h 05m
Length of Day
13h 04m
Waning Gibbous, 76% of the Moon is Illuminated
Sep 5
Waning Gibbous
Sep 8
Last Quarter
Sep 15
New
Sep 22
First Quarter
Sep 29
Full

Hourly Weather History & Observations

Time (EDT) Temp. Dew Point Humidity Pressure Visibility Wind Dir Wind Speed Gust Speed Precip Events Conditions
12:16 AM 63.5 °F 55.4 °F 75% 29.85 in 10.0 mi NNE 5.8 mph - N/A Rain , Thunderstorm Light Thunderstorms and Rain
12:36 AM 65.5 °F 54.7 °F 68% 29.81 in 10.0 mi ENE 12.7 mph 17.3 mph N/A   Mostly Cloudy
12:56 AM 63.7 °F 57.2 °F 79% 29.84 in 10.0 mi ENE 10.4 mph 19.6 mph N/A   Clear
1:16 AM 62.6 °F 59.0 °F 88% 29.86 in 10.0 mi South 6.9 mph - N/A   Scattered Clouds
1:36 AM 61.9 °F 58.1 °F 87% 29.85 in 10.0 mi South 3.5 mph - N/A   Scattered Clouds
1:56 AM 61.3 °F 57.6 °F 87% 29.83 in 10.0 mi SW 4.6 mph - N/A   Clear
2:16 AM 60.1 °F 56.8 °F 89% 29.82 in 10.0 mi SW 4.6 mph - N/A   Clear
2:36 AM 59.9 °F 57.0 °F 90% 29.81 in 10.0 mi SW 4.6 mph - N/A   Clear
2:56 AM 60.1 °F 56.8 °F 89% 29.81 in 10.0 mi SSW 3.5 mph - N/A   Clear
3:16 AM 59.5 °F 56.7 °F 90% 29.82 in 10.0 mi SW 5.8 mph - N/A   Clear
3:36 AM 59.9 °F 56.5 °F 88% 29.81 in 10.0 mi WSW 5.8 mph - N/A   Clear
3:56 AM 59.2 °F 56.3 °F 90% 29.80 in 10.0 mi Calm Calm - N/A   Clear
4:17 AM 59.0 °F 56.3 °F 91% 29.79 in 10.0 mi SSW 3.5 mph - N/A   Clear
4:36 AM 58.8 °F 56.1 °F 91% 29.79 in 10.0 mi SSW 5.8 mph - N/A   Clear
4:56 AM 58.8 °F 55.9 °F 90% 29.79 in 10.0 mi SSW 6.9 mph - N/A   Clear
5:17 AM 58.6 °F 55.8 °F 90% 29.78 in 10.0 mi SSW 5.8 mph - N/A   Clear
5:36 AM 58.6 °F 55.8 °F 90% 29.77 in 10.0 mi SSW 5.8 mph - N/A   Clear
5:56 AM 59.5 °F 56.5 °F 90% 29.77 in 10.0 mi WSW 6.9 mph - N/A   Clear
6:50 AM 60.8 °F 57.2 °F 88% 29.77 in 10.0 mi WSW 10.4 mph - N/A   Clear
7:50 AM 62.6 °F 59.0 °F 88% 29.78 in 7.0 mi SW 9.2 mph - N/A   Overcast
8:55 AM 62.6 °F 59.0 °F 88% 29.77 in 7.0 mi Calm Calm - N/A   Overcast
9:55 AM 64.4 °F 60.8 °F 88% 29.77 in 7.0 mi NW 3.5 mph - N/A   Overcast
10:50 AM 66.2 °F 60.8 °F 83% 29.80 in 7.0 mi SSW 12.7 mph - N/A   Overcast
11:55 AM 64.4 °F 55.4 °F 73% 29.78 in 10.0 mi NW 15.0 mph 29.9 mph N/A Rain Light Rain
12:55 PM 64.4 °F 57.2 °F 77% 29.77 in 10.0 mi North 9.2 mph - N/A   Scattered Clouds
1:50 PM 62.6 °F 55.4 °F 77% 29.80 in 10.0 mi NW 9.2 mph - N/A   Overcast
2:50 PM 60.8 °F 53.6 °F 77% 29.79 in 10.0 mi NNW 8.1 mph - N/A Rain Light Rain
3:50 PM 60.8 °F 55.4 °F 82% 29.84 in 10.0 mi WNW 10.4 mph - N/A Rain Light Rain
4:50 PM 62.6 °F 57.2 °F 82% 29.79 in 10.0 mi NNW 4.6 mph - N/A   Clear
5:50 PM 66.2 °F 53.6 °F 64% 29.79 in 10.0 mi NW 5.8 mph - N/A   Clear
6:50 PM 66.2 °F 53.6 °F 64% 29.79 in 10.0 mi West 4.6 mph - N/A   Clear
7:55 PM 64.4 °F 55.4 °F 73% 29.81 in 10.0 mi WSW 5.8 mph - N/A   Clear
8:50 PM 60.8 °F 55.4 °F 82% 29.81 in 10.0 mi SW 4.6 mph - N/A   Clear
9:50 PM 60.8 °F 55.4 °F 82% 29.82 in 10.0 mi SW 3.5 mph - N/A   Clear
10:16 PM 59.4 °F 54.9 °F 85% 29.82 in 10.0 mi WSW 3.5 mph - N/A   Mostly Cloudy
10:36 PM 59.9 °F 55.0 °F 84% 29.82 in 10.0 mi WSW 4.6 mph - N/A   Overcast
10:56 PM 60.3 °F 55.0 °F 83% 29.82 in 10.0 mi WSW 5.8 mph - N/A   Overcast
11:16 PM 60.8 °F 54.9 °F 81% 29.82 in 10.0 mi WSW 6.9 mph - N/A   Overcast
11:36 PM 60.3 °F 54.7 °F 82% 29.82 in 10.0 mi West 4.6 mph - N/A   Overcast
11:56 PM 60.8 °F 53.6 °F 77% 29.82 in 10.0 mi Calm Calm - N/A   Scattered Clouds